TimeEDT,TemperatureF,Dew PointF,Humidity,Sea Level PressureIn,VisibilityMPH,Wind Direction,Wind SpeedMPH,Gust SpeedMPH,PrecipitationIn,Events,Conditions,WindDirDegrees,DateUTC
12:15 AM,66.9,65.1,94,30.25,10.0,Calm,Calm,-,N/A,,Scattered Clouds,0,2012-10-04 04:15:00
12:35 AM,66.2,65.3,97,30.25,10.0,Calm,Calm,-,N/A,,Scattered Clouds,0,2012-10-04 04:35:00
12:55 AM,65.3,65.3,100,30.25,10.0,Calm,Calm,-,N/A,,Clear,0,2012-10-04 04:55:00
1:15 AM,64.9,64.9,100,30.25,10.0,Calm,Calm,-,N/A,,Clear,0,2012-10-04 05:15:00
1:35 AM,64.8,64.8,100,30.25,10.0,Calm,Calm,-,N/A,,Scattered Clouds,0,2012-10-04 05:35:00
1:55 AM,64.4,64.4,100,30.25,7.0,Calm,Calm,-,N/A,,Scattered Clouds,0,2012-10-04 05:55:00
2:15 AM,64.8,64.8,100,30.25,10.0,Calm,Calm,-,N/A,,Scattered Clouds,0,2012-10-04 06:15:00
2:35 AM,65.3,65.1,99,30.25,10.0,Calm,Calm,-,N/A,,Scattered Clouds,0,2012-10-04 06:35:00
2:55 AM,64.6,64.6,100,30.25,10.0,Calm,Calm,-,N/A,,Mostly Cloudy,0,2012-10-04 06:55:00
3:15 AM,64.6,64.6,100,30.24,7.0,Calm,Calm,-,N/A,,Overcast,0,2012-10-04 07:15:00
3:35 AM,64.9,64.9,100,30.24,10.0,Calm,Calm,-,N/A,,Mostly Cloudy,0,2012-10-04 07:35:00
3:55 AM,64.6,64.6,100,30.24,5.0,Calm,Calm,-,N/A,,Overcast,0,2012-10-04 07:55:00
4:15 AM,64.4,64.4,100,30.26,5.0,Calm,Calm,-,N/A,,Overcast,0,2012-10-04 08:15:00
4:35 AM,64.4,64.4,100,30.25,7.0,Calm,Calm,-,N/A,,Overcast,0,2012-10-04 08:35:00
4:55 AM,64.8,64.8,100,30.25,7.0,Calm,Calm,-,N/A,,Overcast,0,2012-10-04 08:55:00
5:15 AM,64.8,64.8,100,30.26,10.0,Calm,Calm,-,N/A,,Overcast,0,2012-10-04 09:15:00
5:35 AM,64.8,64.8,100,30.26,7.0,Calm,Calm,-,N/A,,Overcast,0,2012-10-04 09:35:00
5:55 AM,64.8,64.8,100,30.26,7.0,Calm,Calm,-,N/A,,Overcast,0,2012-10-04 09:55:00
6:15 AM,64.8,64.8,100,30.27,5.0,Calm,Calm,-,N/A,,Overcast,0,2012-10-04 10:15:00
6:35 AM,64.8,64.8,100,30.28,7.0,Calm,Calm,-,N/A,,Overcast,0,2012-10-04 10:35:00
6:55 AM,64.8,64.8,100,30.28,10.0,Calm,Calm,-,N/A,,Overcast,0,2012-10-04 10:55:00
7:15 AM,64.9,64.9,100,30.28,10.0,Calm,Calm,-,N/A,,Overcast,0,2012-10-04 11:15:00
7:35 AM,64.8,64.8,100,30.28,7.0,Calm,Calm,-,N/A,,Overcast,0,2012-10-04 11:35:00
7:55 AM,64.6,64.6,100,30.29,5.0,Calm,Calm,-,N/A,,Mostly Cloudy,0,2012-10-04 11:55:00
8:15 AM,64.9,64.9,100,30.29,7.0,Calm,Calm,-,N/A,,Mostly Cloudy,0,2012-10-04 12:15:00
8:35 AM,65.3,65.3,100,30.29,10.0,Calm,Calm,-,N/A,,Mostly Cloudy,0,2012-10-04 12:35:00
8:55 AM,65.5,65.5,100,30.30,10.0,Calm,Calm,-,N/A,,Mostly Cloudy,0,2012-10-04 12:55:00
9:15 AM,65.8,65.8,100,30.30,10.0,Calm,Calm,-,N/A,,Scattered Clouds,0,2012-10-04 13:15:00
9:35 AM,66.6,66.6,100,30.31,10.0,Calm,Calm,-,N/A,,Clear,0,2012-10-04 13:35:00
9:55 AM,67.1,66.6,98,30.31,10.0,West,4.6,-,N/A,,Clear,280,2012-10-04 13:55:00
10:15 AM,68.5,66.7,94,30.31,10.0,West,4.6,-,N/A,,Clear,280,2012-10-04 14:15:00
10:35 AM,70.2,66.7,89,30.32,10.0,WNW,3.5,-,N/A,,Clear,290,2012-10-04 14:35:00
10:55 AM,71.1,66.6,86,30.32,10.0,Calm,Calm,-,N/A,,Clear,0,2012-10-04 14:55:00
11:15 AM,72.5,66.9,83,30.32,10.0,Calm,Calm,-,N/A,,Scattered Clouds,0,2012-10-04 15:15:00
11:35 AM,73.2,66.2,79,30.31,10.0,WSW,3.5,-,N/A,,Clear,240,2012-10-04 15:35:00
11:55 AM,75.0,66.0,73,30.31,10.0,Calm,Calm,-,N/A,,Mostly Cloudy,0,2012-10-04 15:55:00
12:35 PM,74.5,64.0,70,30.30,10.0,West,4.6,-,N/A,,Clear,280,2012-10-04 16:35:00
12:55 PM,75.7,64.4,68,30.29,10.0,NNW,4.6,-,N/A,,Clear,330,2012-10-04 16:55:00
1:15 PM,75.9,64.8,68,30.29,10.0,WSW,3.5,-,N/A,,Clear,250,2012-10-04 17:15:00
1:35 PM,75.7,64.4,68,30.28,10.0,NW,4.6,-,N/A,,Clear,310,2012-10-04 17:35:00
1:55 PM,77.7,63.9,62,30.27,10.0,NNW,4.6,-,N/A,,Clear,330,2012-10-04 17:55:00
2:15 PM,77.0,63.1,62,30.26,10.0,Calm,Calm,-,N/A,,Clear,0,2012-10-04 18:15:00
2:35 PM,78.6,63.0,59,30.25,10.0,Calm,Calm,-,N/A,,Clear,0,2012-10-04 18:35:00
2:55 PM,79.0,61.0,54,30.24,10.0,Calm,Calm,-,N/A,,Clear,0,2012-10-04 18:55:00
3:15 PM,80.1,61.0,52,30.24,10.0,Calm,Calm,-,N/A,,Clear,0,2012-10-04 19:15:00
3:35 PM,80.4,61.2,52,30.24,10.0,West,4.6,-,N/A,,Clear,280,2012-10-04 19:35:00
3:55 PM,81.7,61.0,49,30.24,10.0,WNW,3.5,-,N/A,,Clear,290,2012-10-04 19:55:00
4:15 PM,81.3,59.2,47,30.23,10.0,West,4.6,-,N/A,,Clear,280,2012-10-04 20:15:00
4:35 PM,81.5,57.7,44,30.22,10.0,West,4.6,-,N/A,,Clear,280,2012-10-04 20:35:00
4:55 PM,81.5,59.0,46,30.22,10.0,NW,3.5,-,N/A,,Clear,320,2012-10-04 20:55:00
5:15 PM,81.5,59.0,46,30.22,10.0,Calm,Calm,-,N/A,,Clear,0,2012-10-04 21:15:00
5:35 PM,80.6,57.2,45,30.22,10.0,WNW,5.8,-,N/A,,Clear,290,2012-10-04 21:35:00
5:55 PM,80.6,59.2,48,30.21,10.0,NW,3.5,-,N/A,,Clear,310,2012-10-04 21:55:00
6:15 PM,77.2,62.8,61,30.21,10.0,Calm,Calm,-,N/A,,Clear,0,2012-10-04 22:15:00
6:35 PM,74.8,63.0,66,30.21,10.0,North,-9999.0,-,N/A,,Clear,0,2012-10-04 22:35:00
6:55 PM,71.6,63.0,74,30.21,10.0,Calm,Calm,-,N/A,,Clear,0,2012-10-04 22:55:00
7:15 PM,69.6,63.5,81,30.22,10.0,Calm,Calm,-,N/A,,Clear,0,2012-10-04 23:15:00
7:35 PM,66.9,63.5,89,30.22,10.0,Calm,Calm,-,N/A,,Clear,0,2012-10-04 23:35:00
7:55 PM,66.4,62.8,88,30.22,10.0,Calm,Calm,-,N/A,,Clear,0,2012-10-04 23:55:00
8:15 PM,64.8,63.0,94,30.23,10.0,Calm,Calm,-,N/A,,Clear,0,2012-10-05 00:15:00
8:35 PM,64.4,63.1,96,30.23,10.0,Calm,Calm,-,N/A,,Clear,0,2012-10-05 00:35:00
8:55 PM,63.5,62.8,97,30.24,10.0,Calm,Calm,-,N/A,,Clear,0,2012-10-05 00:55:00
9:15 PM,62.6,62.6,100,30.24,10.0,Calm,Calm,-,N/A,,Clear,0,2012-10-05 01:15:00
9:35 PM,61.9,61.9,100,30.25,10.0,Calm,Calm,-,N/A,,Clear,0,2012-10-05 01:35:00
9:55 PM,61.7,61.7,100,30.26,10.0,Calm,Calm,-,N/A,,Clear,0,2012-10-05 01:55:00
10:15 PM,61.3,61.3,100,30.26,10.0,Calm,Calm,-,N/A,,Clear,0,2012-10-05 02:15:00
10:35 PM,61.2,61.2,100,30.26,10.0,Calm,Calm,-,N/A,,Clear,0,2012-10-05 02:35:00
10:55 PM,60.8,60.8,100,30.27,10.0,Calm,Calm,-,N/A,,Clear,0,2012-10-05 02:55:00
11:15 PM,60.3,60.3,100,30.26,10.0,Calm,Calm,-,N/A,,Clear,0,2012-10-05 03:15:00
11:35 PM,60.1,60.1,100,30.26,7.0,Calm,Calm,-,N/A,,Clear,0,2012-10-05 03:35:00
11:55 PM,59.9,59.9,100,30.26,7.0,Calm,Calm,-,N/A,,Clear,0,2012-10-05 03:55:00